Regional Weather Roundup
Issued by NWS Cleveland, OH

Home | Current Version | Previous Version | Graphics & Text | Print | Product List | Glossary On
Versions: 1 2 3 4 5 6 7 8 9 10 11 12 13 14 15 16 17 18 19 20 21 22 23 24 25 26 27 28 29 30 31 32 33 34 35 36 37 38 39 40 41 42 43 44 45 46 47 48 49 50
000
ASUS41 KCLE 211700
RWRCLE
OHIO REGIONAL WEATHER ROUNDUP
NATIONAL WEATHER SERVICE WILMINGTON, OH
100 PM EDT MON MAY 21 2018

NOTE: "FAIR" INDICATES FEW OR NO CLOUDS BELOW 12,000 FEET WITH NO
SIGNIFICANT WEATHER AND/OR OBSTRUCTIONS TO VISIBILITY.

OHZ001>008-015>018-024>027-034-035-043-044-211800-
   NORTHWEST OHIO

CITY           SKY/WX    TMP DP  RH WIND       PRES   REMARKS
DEFIANCE       PTSUNNY   64  54  69 E13       30.17F
FINDLAY        FAIR      72  58  61 E5        30.16F
TOLEDO EXPRESS FAIR      65  54  67 E9        30.19S
TOLEDO EXEC    FAIR      63  53  70 NE9       30.20F
LIMA           PTSUNNY   75  61  61 E7        30.14F
$$

OHZ009>014-019>023-028>033-038-089-211800-
   NORTHEAST OHIO

CITY           SKY/WX    TMP DP  RH WIND       PRES   REMARKS
CLE-HOPKINS    PTSUNNY   68  57  68 N7        30.20F
CLE-LAKEFRONT  FAIR      59  53  80 NE12      30.18F
CUY CO. ARPT   PTSUNNY   75  61  60 E8        30.19F
LORAIN-ELYRIA  FAIR      70  53  54 N6        30.18F
ASHTABULA      FAIR      70  53  54 VRB7      30.21F
AKRON-CANTON   PTSUNNY   74  57  55 SE6       30.18F
WOOSTER        NOT AVBL
MANSFIELD      FAIR      73  58  59 SE8       30.18F
YOUNGSTOWN     PTSUNNY   73  56  54 E8        30.19F
$$

OHZ042-051>053-060>062-070>072-077>081-211800-
  SOUTHWEST OHIO

CITY           SKY/WX    TMP DP  RH WIND       PRES   REMARKS
CINC-COVINGTON PTSUNNY   82  66  58 S7        30.12F
CINC-LUNKEN    FAIR      82  70  66 S3        30.11F
HAMILTON       FAIR      79  69  71 CALM      30.13F
DAYTON         NOT AVBL
WRIGHT-PAT AFB FAIR      78  66  66 E8        30.12F
DAYTON GENERAL FAIR      80  66  62 S7        30.12F
WILMINGTON     FAIR      77  69  76 VRB7      30.13F
$$

OHZ036-037-039>041-045>050-054>059-063>069-073>076-082>088-211800-
  CENTRAL AND SOUTHEAST OHIO

CITY           SKY/WX    TMP DP  RH WIND       PRES   REMARKS
COLUMBUS       FAIR      75  65  70 SE6       30.15F
OSU AIRPORT    FAIR      76  64  66 E9        30.14F
BOLTON FIELD   SUNNY     73  66  78 SE6       30.16F
RICKENBACK AFB FAIR      73  65  77 MISG      30.15S
NEWARK         FAIR      75  63  66 SE6       30.15F
MARION         FAIR      75  59  57 VRB6      30.16F
LANCASTER      RAIN      71  67  87 E3        30.16S FOG
ZANESVILLE     FAIR      77  64  64 SE5       30.16F
NEW PHILLY     FAIR      77  58  51 E9        30.17F
$$




USA.gov is the U.S. government's official web portal to all federal, state and local government web resources and services.